Find Local Weather

World > North America > United States > Idaho

Grays Lake National Wildlife Refuge, Idaho Regional Weather

Lat: 43.06N, Lon: 111.43W
Wx Zone: IDZ023
Feedback
Expires:201810201000;;460185
ASUS45 KBOI 200910
RWRID 

IDAHO REGIONAL WEATHER ROUNDUP
NATIONAL WEATHER SERVICE BOISE ID
300 AM MDT SAT OCT 20 2018

NOTE: "FAIR" INDICATES FEW OR NO CLOUDS BELOW 12000 FEET
WITH NO SIGNIFICANT WEATHER AND/OR OBSTRUCTIONS TO VISIBILITY


IDZ019>023-201000-
SOUTHEAST IDAHO

  
CITY           SKY/WX    TMP DP  RH WIND       PRES   REMARKS
IDAHO FALLS    CLEAR     32  27  81 N3        30.41S                  
POCATELLO      CLEAR     33  28  81 CALM      30.40S                  
REXBURG        CLEAR     33  26  75 NE6       30.41F WCI  28          
$$


SKY/WX - Weather  TMP - Temperature  DP - Dew Point  RH - Relative Humidity
WIND - Wind Direction/Speed PRES - Barometric Pressure